Weather History for Key West, FL

Change the Weather History Date:

Thursday, October 3, 2013

  Actual Average Record
Temperature  
Mean Temperature 83 °F 82 °F  
Max Temperature 87 °F 86 °F 91 °F (1961)
Min Temperature 78 °F 78 °F 65 °F (1876)
Degree Days  
Heating Degree Days 0 0  
Month to date heating degree days 0 0  
Since 1 July heating degree days 0 0  
Cooling Degree Days 18 17  
Month to date cooling degree days 52 51  
Year to date cooling degree days 3914 3786  
Growing Degree Days 31 (Base 50)    
Moisture  
Dew Point 76 °F    
Average Humidity 81    
Maximum Humidity 91    
Minimum Humidity 70    
Precipitation  
Precipitation 0.61 in 0.18 in 3.52 in (2000)
Month to date precipitation 0.92 0.56  
Year to date precipitation 41.23 30.94  
Snow  
Snow 0.00 in - - ()
Month to date snowfall 0.0  
Since 1 July snowfall 0.0  
Since 1 September snowfall 0.0  
Snow Depth 0.00 in    
Sea Level Pressure  
Sea Level Pressure 29.99 in    
Wind  
Wind Speed 10 mph (East)    
Max Wind Speed 21 mph    
Max Gust Speed 29 mph    
Visibility 9 miles    
Events Rain    
T = Trace of Precipitation, MM = Missing Value Source: NWS Daily Summary

Daily Weather History Graph

Daily Weather History Graph

Search for Another Location

Airport:

Trip Planner

Search our weather history database for the weather conditions in past years. The results will help you decide how hot, cold, wet, or windy it might be!

Date:

Astronomy

Oct. 03, 2013 Rise Set
Actual Time 7:19 AM EDT 7:11 PM EDT
Civil Twilight 6:57 AM EDT 7:34 PM EDT
Nautical Twilight 6:30 AM EDT 8:00 PM EDT
Astronomical Twilight 6:04 AM EDT 8:27 PM EDT
Moon 5:57 AM EDT (10/3) 6:16 PM EDT (10/3)
Length of Visible Light 12h 37m
Length of Day
11h 51m
Waning Crescent, 2% of the Moon is Illuminated
Oct 3
Waning Crescent
Oct 4
New
Oct 11
First Quarter
Oct 18
Full
Oct 26
Last Quarter

Hourly Weather History & Observations

Time (EDT) Temp. Heat Index Dew Point Humidity Pressure Visibility Wind Dir Wind Speed Gust Speed Precip Events Conditions
12:53 AM 82.0 °F 88.6 °F 75.0 °F 79% 29.99 in 10.0 mi East 11.5 mph - N/A   Scattered Clouds
1:53 AM 82.0 °F 89.4 °F 75.9 °F 82% 29.98 in 10.0 mi East 11.5 mph - N/A   Partly Cloudy
2:53 AM 82.0 °F 88.6 °F 75.0 °F 79% 29.95 in 10.0 mi East 8.1 mph - N/A   Clear
3:53 AM 82.0 °F 88.6 °F 75.0 °F 79% 29.94 in 10.0 mi ESE 11.5 mph - N/A   Partly Cloudy
4:53 AM 82.0 °F 87.4 °F 73.0 °F 74% 29.93 in 10.0 mi East 13.8 mph - N/A   Clear
5:53 AM 82.0 °F 89.4 °F 75.9 °F 82% 29.94 in 10.0 mi East 11.5 mph - N/A   Scattered Clouds
6:53 AM 82.0 °F 89.4 °F 75.9 °F 82% 29.95 in 10.0 mi ESE 12.7 mph - N/A   Partly Cloudy
7:53 AM 82.0 °F 89.4 °F 75.9 °F 82% 29.97 in 10.0 mi ESE 10.4 mph - N/A   Mostly Cloudy
8:31 AM 78.8 °F - 75.2 °F 89% 29.99 in 2.5 mi ENE 11.5 mph 26.5 mph N/A Rain Rain
8:34 AM 78.8 °F - 75.2 °F 89% 29.99 in 1.8 mi ENE 10.4 mph 26.5 mph N/A Rain Heavy Rain
8:43 AM 78.8 °F - 77.0 °F 94% 29.99 in 3.0 mi ENE 6.9 mph - N/A Rain Rain
8:53 AM 80.1 °F 85.8 °F 77.0 °F 90% 29.99 in 10.0 mi East 6.9 mph - N/A   Mostly Cloudy
9:36 AM 80.6 °F 87.1 °F 77.0 °F 89% 30.01 in 5.0 mi ESE 10.4 mph - N/A Rain Light Rain
9:53 AM 81.0 °F 87.9 °F 77.0 °F 88% 30.01 in 10.0 mi East 15.0 mph 20.7 mph N/A Rain Light Rain
10:53 AM 82.9 °F 91.8 °F 77.0 °F 82% 30.03 in 10.0 mi ESE 12.7 mph - N/A   Scattered Clouds
11:53 AM 86.0 °F 96.9 °F 77.0 °F 74% 30.04 in 10.0 mi ESE 12.7 mph - N/A   Scattered Clouds
12:14 PM 82.4 °F 89.5 °F 75.2 °F 79% 30.03 in 9.0 mi SE 15.0 mph - N/A   Mostly Cloudy
12:22 PM 80.6 °F 86.2 °F 75.2 °F 84% 30.04 in 7.0 mi East 18.4 mph 24.2 mph N/A Rain Light Rain
12:53 PM 79.0 °F - 75.0 °F 88% 30.04 in 5.0 mi East 12.7 mph 18.4 mph N/A Rain Rain
1:53 PM 84.9 °F 94.1 °F 75.9 °F 74% 30.01 in 10.0 mi ESE 5.8 mph - N/A   Partly Cloudy
2:53 PM 86.0 °F 96.0 °F 75.9 °F 72% 29.99 in 10.0 mi SE 9.2 mph - N/A   Clear
3:53 PM 86.0 °F 96.0 °F 75.9 °F 72% 29.98 in 10.0 mi ESE 10.4 mph - N/A   Partly Cloudy
4:53 PM 84.9 °F 94.1 °F 75.9 °F 74% 29.97 in 10.0 mi ESE 10.4 mph - N/A   Partly Cloudy
5:53 PM 84.0 °F 92.6 °F 75.9 °F 76% 29.97 in 10.0 mi East 8.1 mph - N/A   Clear
6:53 PM 82.9 °F 90.2 °F 75.0 °F 77% 29.98 in 10.0 mi East 6.9 mph - N/A   Clear
7:53 PM 82.9 °F 90.2 °F 75.0 °F 77% 29.99 in 10.0 mi East 5.8 mph - N/A   Clear
8:53 PM 82.9 °F 91.8 °F 77.0 °F 82% 29.99 in 10.0 mi ENE 8.1 mph - N/A   Mostly Cloudy
9:12 PM 82.4 °F 90.9 °F 77.0 °F 84% 30.00 in 10.0 mi ENE 9.2 mph - N/A   Partly Cloudy
9:53 PM 81.0 °F 87.3 °F 75.9 °F 85% 30.01 in 10.0 mi East 10.4 mph - N/A   Clear
10:53 PM 82.0 °F 89.4 °F 75.9 °F 82% 30.02 in 10.0 mi East 8.1 mph - N/A   Clear